Regional Weather Roundup
Issued by NWS State College, PA

Home | Current Version | Previous Version | Text Only | Print | Product List | Glossary On
Versions: 1 2 3 4 5 6 7 8 9 10 11 12 13 14 15 16 17 18 19 20 21 22 23 24 25 26 27 28 29 30 31 32 33 34 35 36 37 38 39 40 41 42 43 44 45 46 47 48 49 50
000
ASUS41 KCTP 252210
RWRCTP

REGIONAL WEATHER ROUNDUP
NATIONAL WEATHER SERVICE STATE COLLEGE PA
500 PM EST THU DEC 25 2014

Note: "fair" indicates few or no clouds below 12,000 feet with no
significant weather and/or obstructions to visibility.

* = STATION THAT DOES NOT REPORT PRECIPITATION /E.G. RAIN...SNOW...ETC/
    THUNDER OR FOG.

PAZ002>004-007>009-013>016-020>023-029>032-252300-
WESTERN PENNSYLVANIA

CITY           SKY/WX    TMP DP  RH WIND       PRES   REMARKS
ERIE           CLOUDY    39  30  70 W14G22    30.06R
MEADVILLE      CLOUDY    37  28  70 W10G20    30.04R
FRANKLIN*      CLOUDY    36  27  69 W12G18    30.07R
NEW CASTLE       N/A     38  29  70 SW8       30.11R
BEAVER COUNTY  NOT AVBL
BUTLER*        CLOUDY    37  28  70 W8        30.11R
PITTSBURGH INT CLOUDY    39  28  64 W8        30.11R
PITTSBURGH     CLOUDY    38  27  64 W12       30.10R
INDIANA*       CLOUDY    39  30  70 W9G18     30.12R
LATROBE        CLOUDY    39  32  75 W14       30.12R
WASHINGTON CO* NOT AVBL
$$

PAZ004>006-010>012-017>019-024>028-033>037-041-042-045-046-049>053-252300-
CENTRAL PENNSYLVANIA

CITY           SKY/WX    TMP DP  RH WIND       PRES   REMARKS
BRADFORD       CLOUDY    35  27  72 W10G18    30.00R
DUBOIS         CLOUDY    36  29  75 W13       30.03R
CLEARFIELD     CLOUDY    38  28  67 W8        30.05R
JOHNSTOWN      CLOUDY    34  27  75 W14       30.03R
ALTOONA        CLOUDY    38  28  67 W16G25    30.07R
STATE COLLEGE  CLOUDY    39  30  70 W15G26    30.06R
WILLIAMSPORT   CLOUDY    43  31  62 W16       30.03R
SELINSGROVE    CLOUDY    45  31  58 VRB7      30.05R
FT INDIANTOWN  CLOUDY    46  29  53 W12G22    30.05R
CAPITAL CITY   CLOUDY    47  29  49 NW13G21   30.06R
HARRISBURG     MOCLDY    45  30  55 NW15G25   30.05R
YORK           CLOUDY    46  31  55 W9        30.06R
$$

PAZ038>040-043-044-047-048-054-055-060>062-067>071-252300-
EASTERN PENNSYLVANIA

CITY           SKY/WX    TMP DP  RH WIND       PRES   REMARKS
SCRANTON       CLOUDY    44  30  57 W14       29.97R
MOUNT POCONO   PTCLDY    39  28  64 NW20G29   29.92R
ALLENTOWN      CLOUDY    48  30  49 W13       29.99R
QUAKERTOWN*    NOT AVBL
READING        PTCLDY    46  30  53 W12       30.01R
LANCASTER      MOCLDY    45  30  55 W16       30.04R
COATESVILLE    PTCLDY    45  32  61 W12       30.03R
POTTSTOWN      CLEAR     46  30  53 W10G21    30.01R
BLUE BELL      PTCLDY    48  32  53 W6G18     30.00R
DOYLESTOWN     CLEAR     45  32  60 NW13      29.98R
WILLOW GROVE   NOT AVBL
NORTH PHILA    PTCLDY    50  28  42 W14G23    30.01R
PHILADELPHIA   PTCLDY    51  29  42 W10       30.02R
$$



USA.gov is the U.S. government's official web portal to all federal, state and local government web resources and services.